Location: Arboyeti
(42.1122°N, 44.6017°E)
Time: 21:12:58
(UTC+00:00)

SL-8 Rocket - Pass Details

Date: 19 April 2021
Orbit: 958 x 989 km, 82.9° (Epoch: 18 May)

Event Time Altitude Azimuth Distance (km) Brightness Sun altitude
Rises 22:11:40 0° 354° (N) 3,693 7.8 -34.0°
Reaches altitude 10° 22:14:12 10° 356° (N) 2,745 7.0 -33.8°
Enters shadow 22:19:39 65° 29° (NNE) 1,083 4.3 -33.4°
